Weather History for Victoria, BC

Change the Weather History Date:

Saturday, October 20, 2012

  Actual Average Record
Temperature  
Mean Temperature 42 °F -  
Max Temperature 48 °F 52 °F 64 °F (2003)
Min Temperature 37 °F 38 °F 32 °F (1996)
Degree Days  
Heating Degree Days 22    
Moisture  
Dew Point 36 °F    
Average Humidity 72    
Maximum Humidity 87    
Minimum Humidity 54    
Precipitation  
Precipitation 0.00 in 0.15 in - ()
Sea Level Pressure  
Sea Level Pressure 29.82 in    
Wind  
Wind Speed 5 mph ()    
Max Wind Speed 16 mph    
Max Gust Speed 17 mph    
Visibility 19.8 miles    
Events Rain    
Averages and records for this station are not official NWS values.
T = Trace of Precipitation, MM = Missing Value Source: Averaged Metar Reports

Daily Weather History Graph

Daily Weather History Graph

Search for Another Location

Airport:

Trip Planner

Search our weather history database for the weather conditions in past years. The results will help you decide how hot, cold, wet, or windy it might be!

Date:

Astronomy

Oct. 20, 2012 Rise Set
Actual Time 7:42 AM PDT 6:13 PM PDT
Civil Twilight 7:10 AM PDT 6:45 PM PDT
Nautical Twilight 6:33 AM PDT 7:22 PM PDT
Astronomical Twilight 5:57 AM PDT 7:58 PM PDT
Moon 1:37 PM PDT 10:53 PM PDT
Length of Visible Light 11h 35m
Length of Day
10h 31m
Waxing Crescent, 35% of the Moon is Illuminated
Oct 20
Waxing Crescent
Oct 21
First Quarter
Oct 29
Full
Nov 6
Last Quarter
Nov 13
New

Hourly Weather History & Observations

Time (PDT) Temp. Windchill Dew Point Humidity Pressure Visibility Wind Dir Wind Speed Gust Speed Precip Events Conditions
12:00 AM 42.8 °F - 37.4 °F 81% 29.76 in 30.0 mi Calm Calm - N/A   Scattered Clouds
1:00 AM 42.8 °F - 37.4 °F 81% 29.78 in 30.0 mi Calm Calm - N/A   Partly Cloudy
2:00 AM 44.6 °F 39.7 °F 35.6 °F 71% 29.79 in 30.0 mi West 9.2 mph - N/A   Scattered Clouds
3:00 AM 42.8 °F - 33.8 °F 70% 29.80 in 30.0 mi Calm Calm - N/A   Scattered Clouds
4:00 AM 39.2 °F 33.6 °F 33.8 °F 81% 29.81 in 30.0 mi West 8.1 mph - N/A   Mostly Cloudy
5:00 AM 40 °F - 35 °F 78% 29.81 in 28 mi Calm Calm - -   Overcast
5:00 AM 41.0 °F - 35.6 °F 81% 29.81 in 30.0 mi Calm Calm - N/A   Overcast
5:34 AM 42.8 °F 37.5 °F - N/A% - 30.0 mi West 9.2 mph - N/A Rain Light Rain
5:54 AM 42.8 °F 38.0 °F - N/A% - 30.0 mi SW 8.1 mph - N/A   Mostly Cloudy
6:00 AM 42.8 °F 38.6 °F 35.6 °F 76% 29.81 in 30.0 mi SW 6.9 mph - N/A   Mostly Cloudy
7:00 AM 42.8 °F 37.5 °F 35.6 °F 76% 29.83 in 30.0 mi SSW 9.2 mph - N/A   Scattered Clouds
8:00 AM 41.0 °F - 33.8 °F 76% 29.83 in 30.0 mi Calm Calm - N/A   Mostly Cloudy
9:00 AM 42.8 °F 37.5 °F 35.6 °F 76% 29.83 in 30.0 mi SSW 9.2 mph - N/A   Mostly Cloudy
10:00 AM 48.2 °F - 37.4 °F 66% 29.84 in 30.0 mi SW 11.5 mph - N/A   Mostly Cloudy
11:00 AM 46 °F - 36 °F 59% 29.84 in 28 mi WSW 10.4 mph - -   Partly Cloudy
11:00 AM 46.4 °F 41.5 °F 35.6 °F 66% 29.84 in 30.0 mi WSW 10.4 mph - N/A   Mostly Cloudy
12:00 PM 46.4 °F 39.8 °F 35.6 °F 66% 29.85 in 30.0 mi WSW 16.1 mph - N/A   Mostly Cloudy
1:00 PM 48.2 °F - 35.6 °F 62% 29.85 in 30.0 mi SSW 16.1 mph - N/A   Mostly Cloudy
2:00 PM 48.2 °F - 35.6 °F 62% 29.85 in 30.0 mi SSW 10.4 mph - N/A   Mostly Cloudy
3:00 PM 46.4 °F 41.1 °F 35.6 °F 66% 29.85 in 30.0 mi SSW 11.5 mph 17.3 mph N/A   Mostly Cloudy
3:14 PM 46.4 °F 41.9 °F - N/A% - 30.0 mi SSW 9.2 mph - N/A Rain Light Rain
3:42 PM 46.4 °F 42.9 °F - N/A% - 30.0 mi SSW 6.9 mph - N/A   Overcast
4:00 PM 46.4 °F 42.9 °F 35.6 °F 66% 29.85 in 30.0 mi SW 6.9 mph - N/A   Overcast
4:37 PM 48.2 °F - - N/A% - 30.0 mi SSW 9.2 mph - N/A Rain Light Rain
5:00 PM 47 °F - 36 °F 54% 29.83 in 28 mi SW 6.9 mph - - Rain Light Rain
5:00 PM 46.4 °F 42.9 °F 35.6 °F 66% 29.83 in 30.0 mi SW 6.9 mph - N/A   Mostly Cloudy
6:00 PM 44.6 °F - 35.6 °F 71% 29.83 in 30.0 mi Calm Calm - N/A   Mostly Cloudy
7:00 PM 44.6 °F 42.2 °F 35.6 °F 71% 29.83 in 30.0 mi South 4.6 mph - N/A Rain Light Rain
7:40 PM 44.6 °F 43.1 °F - N/A% - 30.0 mi South 3.5 mph - N/A   Scattered Clouds
8:00 PM 42.8 °F 41.1 °F 35.6 °F 76% 29.83 in 30.0 mi SSE 3.5 mph - N/A   Scattered Clouds
9:00 PM 42.8 °F 39.3 °F 35.6 °F 76% 29.83 in 20.0 mi SSE 5.8 mph - N/A   Mostly Cloudy
10:00 PM 42.8 °F - 37.4 °F 81% 29.83 in 20.0 mi Calm Calm - N/A   Mostly Cloudy
11:00 PM 42 °F - 37 °F 77% 29.83 in 19 mi SE 2.3 mph - -   Partly Cloudy
11:00 PM 41.0 °F 37.1 °F 37.4 °F 87% 29.83 in 20.0 mi SE 5.8 mph - N/A   Overcast